Location: Veytaux
(46.4185°N, 6.9320°E)
Time: 04:54:18
(UTC+00:00)

DEBRIS - Pass Details

Date: 29 September 2022
Orbit: 310 x 15046 km, 49.5° (Epoch: 28 November)

Event Time Altitude Azimuth Distance (km) Brightness Sun altitude
Rises 01:59:50 0° 147° (SSE) 12,256 9.6 -34.3°
Reaches altitude 10° 02:11:40 10° 138° (SE) 13,271 9.8 -32.7°
Maximum altitude 03:40:17 38° 88° (E) 16,925 10.8 -19.1°
Drops below altitude 10° 04:54:41 10° 51° (NE) 13,410 10.7 -6.6°
Sets 05:04:23 0° 47° (NE) 12,825 10.6 -4.9°
